• In Hungary
  • List of Countries
  • For 7 days
  • Water Temperature
  • Satellite Maps
  • Weather Map
  • News
  • Weather Widgets
  • user-avatar
    Login

    Hourly Weather Wakefield

    Today, 17 December, Sunday

    Time Temperature Precipitation Wind Pressure Humidity
    00:00 +1°C° 0 mm 1 mps 760 mmHg 79%
    01:00 +1°C° 0 mm 1 mps 760 mmHg 80%
    02:00 +1°C° 0 mm 1 mps 760 mmHg 81%
    03:00 +2°C° 0 mm 1 mps 760 mmHg 82%
    04:00 +1°C° 0 mm 2 mps 760 mmHg 85%
    05:00 +1°C° 0 mm 2 mps 759 mmHg 87%
    06:00 +1°C° 0 mm 2 mps 759 mmHg 90%
    07:00 +1°C° 0 mm 3 mps 759 mmHg 91%
    08:00 +1°C° 0 mm 3 mps 759 mmHg 92%
    09:00 +1°C° 0 mm 3 mps 758 mmHg 93%
    10:00 +1°C° 0.2 mm 4 mps 758 mmHg 92%
    11:00 +3°C° 0.2 mm 4 mps 757 mmHg 91%
    12:00 +3°C° 0.2 mm 5 mps 757 mmHg 91%
    13:00 +3°C° 0.6 mm 5 mps 756 mmHg 92%
    14:00 +5°C° 0.6 mm 5 mps 756 mmHg 93%
    15:00 +5°C° 0.6 mm 5 mps 755 mmHg 94%
    16:00 +6°C° 0 mm 5 mps 756 mmHg 93%
    17:00 +6°C° 0 mm 4 mps 756 mmHg 92%
    18:00 +6°C° 0 mm 4 mps 757 mmHg 92%
    19:00 +5°C° 0 mm 4 mps 758 mmHg 90%
    20:00 +4°C° 0 mm 4 mps 759 mmHg 88%
    21:00 +3°C° 0 mm 4 mps 759 mmHg 86%
    22:00 +3°C° 0 mm 3 mps 760 mmHg 86%
    23:00 +2°C° 0 mm 3 mps 761 mmHg 85%

    Tomorrow, 18 December, Monday

    Time Temperature Precipitation Wind Pressure Humidity
    00:00 +3°C° 0 mm 2 mps 761 mmHg 85%
    01:00 +3°C° 0 mm 2 mps 762 mmHg 85%
    02:00 +3°C° 0 mm 2 mps 762 mmHg 85%
    03:00 +3°C° 0 mm 2 mps 762 mmHg 86%
    04:00 +3°C° 0 mm 2 mps 763 mmHg 87%
    05:00 +3°C° 0 mm 2 mps 763 mmHg 88%
    06:00 +3°C° 0 mm 2 mps 763 mmHg 90%
    07:00 +3°C° 0 mm 2 mps 764 mmHg 90%
    08:00 +3°C° 0 mm 2 mps 764 mmHg 90%
    09:00 +4°C° 0 mm 1 mps 765 mmHg 91%
    10:00 +4°C° 0 mm 1 mps 765 mmHg 89%
    11:00 +5°C° 0 mm 1 mps 765 mmHg 88%
    12:00 +6°C° 0 mm 1 mps 765 mmHg 86%
    13:00 +6°C° 0 mm 1 mps 765 mmHg 88%
    14:00 +6°C° 0 mm 1 mps 765 mmHg 89%
    15:00 +6°C° 0 mm 1 mps 765 mmHg 91%
    16:00 +5°C° 0 mm 1 mps 766 mmHg 91%
    17:00 +5°C° 0 mm 1 mps 766 mmHg 91%
    18:00 +3°C° 0 mm 2 mps 766 mmHg 92%
    19:00 +3°C° 0 mm 2 mps 766 mmHg 91%
    20:00 +3°C° 0 mm 2 mps 766 mmHg 90%
    21:00 +3°C° 0 mm 2 mps 766 mmHg 90%
    22:00 +3°C° 0 mm 2 mps 767 mmHg 89%
    23:00 +3°C° 0 mm 2 mps 767 mmHg 87%

    Day after tomorrow, 19 December, Tuesday

    Time Temperature Precipitation Wind Pressure Humidity
    00:00 +3°C° 0 mm 2 mps 767 mmHg 86%
    01:00 +3°C° 0 mm 2 mps 767 mmHg 85%
    02:00 +3°C° 0 mm 2 mps 767 mmHg 84%
    03:00 +3°C° 0 mm 2 mps 767 mmHg 84%
    04:00 +3°C° 0 mm 2 mps 767 mmHg 84%
    05:00 +3°C° 0 mm 2 mps 767 mmHg 84%
    06:00 +3°C° 0 mm 2 mps 767 mmHg 84%
    07:00 +3°C° 0 mm 2 mps 767 mmHg 86%
    08:00 +4°C° 0 mm 2 mps 767 mmHg 88%
    09:00 +4°C° 0 mm 2 mps 767 mmHg 90%
    10:00 +4°C° 0 mm 3 mps 767 mmHg 91%
    11:00 +7°C° 0 mm 3 mps 767 mmHg 91%
    12:00 +8°C° 0 mm 3 mps 767 mmHg 92%
    13:00 +8°C° 0 mm 3 mps 767 mmHg 93%
    14:00 +8°C° 0 mm 3 mps 767 mmHg 94%
    15:00 +8°C° 0 mm 3 mps 767 mmHg 95%
    16:00 +8°C° 0 mm 3 mps 767 mmHg 95%
    17:00 +8°C° 0 mm 3 mps 767 mmHg 96%
    18:00 +8°C° 0 mm 3 mps 767 mmHg 96%
    19:00 +8°C° 0 mm 3 mps 767 mmHg 96%
    20:00 +8°C° 0 mm 3 mps 767 mmHg 96%
    21:00 +8°C° 0 mm 3 mps 767 mmHg 96%
    22:00 +8°C° 0 mm 3 mps 767 mmHg 96%
    23:00 +7°C° 0 mm 4 mps 767 mmHg 95%

    20 December, Wednesday

    Time Temperature Precipitation Wind Pressure Humidity
    00:00 +7°C° 0 mm 4 mps 767 mmHg 95%
    01:00 +8°C° 0 mm 4 mps 767 mmHg 95%
    02:00 +8°C° 0 mm 4 mps 767 mmHg 95%
    03:00 +8°C° 0 mm 4 mps 767 mmHg 94%
    04:00 +8°C° 0 mm 4 mps 766 mmHg 94%
    05:00 +8°C° 0 mm 4 mps 766 mmHg 94%
    06:00 +8°C° 0 mm 4 mps 766 mmHg 94%
    07:00 +8°C° 0 mm 4 mps 766 mmHg 94%
    08:00 +8°C° 0 mm 4 mps 767 mmHg 94%
    09:00 +8°C° 0 mm 4 mps 767 mmHg 93%
    10:00 +8°C° 0 mm 4 mps 766 mmHg 92%
    11:00 +9°C° 0 mm 5 mps 766 mmHg 90%
    12:00 +10°C° 0 mm 5 mps 766 mmHg 88%
    13:00 +10°C° 0 mm 5 mps 766 mmHg 88%
    14:00 +10°C° 0 mm 5 mps 766 mmHg 89%
    15:00 +10°C° 0 mm 5 mps 766 mmHg 90%
    16:00 +10°C° 0 mm 4 mps 766 mmHg 91%
    17:00 +10°C° 0 mm 4 mps 766 mmHg 92%
    18:00 +10°C° 0 mm 4 mps 766 mmHg 93%
    19:00 +10°C° 0.2 mm 4 mps 766 mmHg 93%
    20:00 +10°C° 0.2 mm 4 mps 766 mmHg 93%
    21:00 +10°C° 0.2 mm 4 mps 766 mmHg 93%
    22:00 +10°C° 0.3 mm 4 mps 766 mmHg 94%
    23:00 +10°C° 0.3 mm 4 mps 766 mmHg 94%

    21 December, Thursday

    Time Temperature Precipitation Wind Pressure Humidity
    00:00 +11°C° 0.3 mm 4 mps 765 mmHg 94%
    01:00 +11°C° 0.1 mm 4 mps 765 mmHg 94%
    02:00 +11°C° 0.1 mm 4 mps 765 mmHg 94%
    03:00 +11°C° 0.1 mm 4 mps 765 mmHg 94%
    04:00 +11°C° 0.1 mm 4 mps 765 mmHg 94%
    05:00 +11°C° 0.1 mm 4 mps 764 mmHg 94%
    06:00 +11°C° 0.1 mm 4 mps 764 mmHg 94%
    07:00 +11°C° 0.2 mm 4 mps 764 mmHg 93%
    08:00 +10°C° 0.2 mm 5 mps 764 mmHg 92%
    09:00 +10°C° 0.2 mm 5 mps 764 mmHg 92%
    10:00 +10°C° 0.2 mm 5 mps 764 mmHg 90%
    11:00 +10°C° 0.2 mm 5 mps 763 mmHg 89%
    12:00 +11°C° 0.2 mm 6 mps 763 mmHg 87%
    13:00 +10°C° 0.5 mm 5 mps 763 mmHg 88%
    14:00 +10°C° 0.5 mm 5 mps 762 mmHg 88%
    15:00 +10°C° 0.5 mm 5 mps 762 mmHg 89%
    16:00 +9°C° 0.5 mm 5 mps 763 mmHg 88%
    17:00 +8°C° 0.5 mm 6 mps 764 mmHg 87%
    18:00 +7°C° 0.5 mm 6 mps 765 mmHg 86%
    19:00 +7°C° 0 mm 5 mps 766 mmHg 85%
    20:00 +6°C° 0 mm 4 mps 767 mmHg 84%
    21:00 +6°C° 0 mm 4 mps 768 mmHg 84%
    22:00 +5°C° 0 mm 4 mps 769 mmHg 83%
    23:00 +4°C° 0 mm 4 mps 770 mmHg 82%

    22 December, Friday

    Time Temperature Precipitation Wind Pressure Humidity
    00:00 +4°C° 0 mm 4 mps 771 mmHg 81%
    01:00 +4°C° 0 mm 4 mps 771 mmHg 81%
    02:00 +3°C° 0 mm 3 mps 772 mmHg 80%
    03:00 +3°C° 0 mm 3 mps 772 mmHg 80%
    04:00 +3°C° 0 mm 3 mps 773 mmHg 80%
    05:00 +3°C° 0 mm 3 mps 773 mmHg 81%
    06:00 +3°C° 0 mm 3 mps 773 mmHg 81%
    07:00 +3°C° 0 mm 3 mps 774 mmHg 81%
    08:00 +3°C° 0 mm 3 mps 774 mmHg 81%
    09:00 +3°C° 0 mm 3 mps 775 mmHg 81%
    10:00 +4°C° 0 mm 3 mps 775 mmHg 80%
    11:00 +5°C° 0 mm 4 mps 775 mmHg 78%
    12:00 +6°C° 0 mm 5 mps 775 mmHg 76%
    13:00 +6°C° 0 mm 5 mps 775 mmHg 78%
    14:00 +6°C° 0 mm 5 mps 774 mmHg 79%
    15:00 +5°C° 0 mm 5 mps 774 mmHg 80%
    16:00 +5°C° 0 mm 5 mps 774 mmHg 81%
    17:00 +5°C° 0 mm 5 mps 774 mmHg 81%
    18:00 +3°C° 0 mm 5 mps 774 mmHg 81%
    19:00 +3°C° 0 mm 6 mps 773 mmHg 81%
    20:00 +3°C° 0 mm 6 mps 773 mmHg 80%
    21:00 +3°C° 0 mm 6 mps 773 mmHg 79%
    22:00 +3°C° 0 mm 6 mps 772 mmHg 80%
    23:00 +3°C° 0 mm 6 mps 772 mmHg 81%
    Show more